Time,TemperatureF,DewpointF,PressureIn,WindDirection,WindDirectionDegrees,WindSpeedMPH,WindSpeedGustMPH,Humidity,HourlyPrecipIn,Conditions,Clouds,dailyrainin,SoftwareType,DateUTC
2013-01-26 00:02:00,23.7,20.9,29.90,SE,135,2.8,3.5,89,0.00,CLR,,0.00,WeatherDisplay:10.37,2013-01-26 07:02:00,
2013-01-26 00:07:00,24.3,21.3,29.90,South,180,3.0,3.5,88,0.00,CLR,,0.00,WeatherDisplay:10.37,2013-01-26 07:07:00,
2013-01-26 00:12:00,24.8,21.8,29.90,South,180,5.8,6.9,88,0.00,CLR,,0.00,WeatherDisplay:10.37,2013-01-26 07:12:00,
2013-01-26 00:17:00,25.5,21.9,29.90,SSE,158,7.4,8.1,86,0.00,CLR,,0.00,WeatherDisplay:10.37,2013-01-26 07:17:00,
2013-01-26 00:22:00,25.7,22.1,29.90,SSE,158,6.3,8.1,86,0.00,CLR,,0.00,WeatherDisplay:10.37,2013-01-26 07:22:00,
2013-01-26 00:27:00,25.7,22.1,29.90,ESE,112,5.3,5.8,86,0.00,CLR,,0.00,WeatherDisplay:10.37,2013-01-26 07:27:00,
2013-01-26 00:32:00,25.7,22.1,29.90,SE,135,3.9,4.6,86,0.00,CLR,,0.00,WeatherDisplay:10.37,2013-01-26 07:32:00,
2013-01-26 00:37:00,25.7,22.1,29.90,ESE,112,3.6,4.6,86,0.00,CLR,,0.00,WeatherDisplay:10.37,2013-01-26 07:37:00,
2013-01-26 00:42:00,25.7,22.1,29.90,NE,45,1.7,2.3,86,0.00,CLR,,0.00,WeatherDisplay:10.37,2013-01-26 07:42:00,
2013-01-26 00:47:00,23.9,19.8,29.90,ENE,68,2.2,2.3,84,0.00,CLR,,0.00,WeatherDisplay:10.37,2013-01-26 07:47:00,
2013-01-26 00:52:00,23.5,19.7,29.89,NE,45,2.3,2.3,85,0.00,CLR,,0.00,WeatherDisplay:10.37,2013-01-26 07:52:00,
2013-01-26 00:57:00,23.5,20.2,29.89,ESE,112,2.7,2.7,87,0.00,CLR,,0.00,WeatherDisplay:10.37,2013-01-26 07:57:00,
2013-01-26 01:02:00,23.5,20.2,29.89,ENE,68,2.1,2.3,87,0.00,CLR,,0.00,WeatherDisplay:10.37,2013-01-26 08:02:00,
2013-01-26 01:07:00,23.9,21.1,29.89,ESE,112,2.3,2.3,89,0.00,CLR,,0.00,WeatherDisplay:10.37,2013-01-26 08:07:00,
2013-01-26 01:12:00,24.3,21.3,29.89,SE,135,2.5,3.5,88,0.00,CLR,,0.00,WeatherDisplay:10.37,2013-01-26 08:12:00,
2013-01-26 01:17:00,24.3,21.3,29.88,ESE,112,1.5,1.7,88,0.00,CLR,,0.00,WeatherDisplay:10.37,2013-01-26 08:17:00,
2013-01-26 01:22:00,24.6,21.6,29.88,SE,135,1.0,1.1,88,0.00,CLR,,0.00,WeatherDisplay:10.37,2013-01-26 08:22:00,
2013-01-26 01:27:00,24.4,21.1,29.88,NNE,22,1.6,2.3,87,0.00,CLR,,0.00,WeatherDisplay:10.37,2013-01-26 08:27:00,
2013-01-26 01:32:00,24.4,21.1,29.88,ENE,68,1.8,2.3,87,0.00,CLR,,0.00,WeatherDisplay:10.37,2013-01-26 08:32:00,
2013-01-26 01:37:00,24.4,21.6,29.87,ESE,112,2.4,2.7,89,0.00,CLR,,0.00,WeatherDisplay:10.37,2013-01-26 08:37:00,
2013-01-26 01:42:00,25.0,22.2,29.87,SSE,158,2.4,3.2,89,0.00,CLR,,0.00,WeatherDisplay:10.37,2013-01-26 08:42:00,
2013-01-26 01:47:00,25.0,21.9,29.87,ENE,68,0.7,2.3,88,0.00,CLR,,0.00,WeatherDisplay:10.37,2013-01-26 08:47:00,
2013-01-26 01:52:00,25.0,21.7,29.87,East,90,1.9,2.3,87,0.00,CLR,,0.00,WeatherDisplay:10.37,2013-01-26 08:52:00,
2013-01-26 01:57:00,24.6,21.3,29.87,ENE,68,2.2,2.3,87,0.00,CLR,,0.00,WeatherDisplay:10.37,2013-01-26 08:57:00,
2013-01-26 02:02:00,24.6,21.3,29.87,ESE,112,1.3,1.3,87,0.00,CLR,,0.00,WeatherDisplay:10.37,2013-01-26 09:02:00,
2013-01-26 02:07:00,24.6,21.6,29.87,ESE,112,1.4,2.3,88,0.00,CLR,,0.00,WeatherDisplay:10.37,2013-01-26 09:07:00,
2013-01-26 02:12:00,24.6,21.3,29.87,East,90,1.5,1.5,87,0.00,CLR,,0.00,WeatherDisplay:10.37,2013-01-26 09:12:00,
2013-01-26 02:17:00,24.4,21.1,29.87,NE,45,1.7,2.3,87,0.00,CLR,,0.00,WeatherDisplay:10.37,2013-01-26 09:17:00,
2013-01-26 02:22:00,24.4,21.1,29.87,ENE,68,1.8,2.3,87,0.00,CLR,,0.00,WeatherDisplay:10.37,2013-01-26 09:22:00,
2013-01-26 02:27:00,24.6,21.6,29.86,NNE,22,2.5,2.5,88,0.00,CLR,,0.00,WeatherDisplay:10.37,2013-01-26 09:27:00,
2013-01-26 02:32:00,24.6,21.6,29.86,ESE,112,1.6,2.3,88,0.00,CLR,,0.00,WeatherDisplay:10.37,2013-01-26 09:32:00,
2013-01-26 02:37:00,24.6,21.6,29.86,NNE,22,0.0,0.0,88,0.00,CLR,,0.00,WeatherDisplay:10.37,2013-01-26 09:37:00,
2013-01-26 02:42:00,24.8,21.8,29.86,ESE,112,0.4,1.1,88,0.00,CLR,,0.00,WeatherDisplay:10.37,2013-01-26 09:42:00,
2013-01-26 02:47:00,24.8,21.8,29.86,ENE,68,2.0,2.3,88,0.00,CLR,,0.00,WeatherDisplay:10.37,2013-01-26 09:47:00,
2013-01-26 02:52:00,24.8,21.8,29.86,ESE,112,2.3,2.3,88,0.00,CLR,,0.00,WeatherDisplay:10.37,2013-01-26 09:52:00,
2013-01-26 02:57:00,24.8,21.8,29.86,NNE,22,2.0,2.3,88,0.00,CLR,,0.00,WeatherDisplay:10.37,2013-01-26 09:57:00,
2013-01-26 03:02:00,24.8,22.0,29.86,ENE,68,2.0,2.3,89,0.00,CLR,,0.00,WeatherDisplay:10.37,2013-01-26 10:02:00,
2013-01-26 03:07:00,25.0,22.2,29.86,ENE,68,1.8,2.3,89,0.00,CLR,,0.00,WeatherDisplay:10.37,2013-01-26 10:07:00,
2013-01-26 03:12:00,25.3,22.2,29.86,NNE,22,2.7,2.7,88,0.00,SCT,,0.00,WeatherDisplay:10.37,2013-01-26 10:12:00,
2013-01-26 03:17:00,25.9,23.4,29.86,ENE,68,2.8,3.5,90,0.00,SCT,,0.00,WeatherDisplay:10.37,2013-01-26 10:17:00,
2013-01-26 03:22:00,25.9,22.8,29.86,SE,135,1.6,2.3,88,0.00,SCT,,0.00,WeatherDisplay:10.37,2013-01-26 10:22:00,
2013-01-26 03:27:00,25.9,22.8,29.85,East,90,2.3,2.3,88,0.00,SCT,,0.00,WeatherDisplay:10.37,2013-01-26 10:27:00,
2013-01-26 03:32:00,25.9,22.8,29.85,ENE,68,1.9,2.3,88,0.00,SCT,,0.00,WeatherDisplay:10.37,2013-01-26 10:32:00,
2013-01-26 03:37:00,25.9,22.8,29.85,NE,45,2.2,2.7,88,0.00,SCT,,0.00,WeatherDisplay:10.37,2013-01-26 10:37:00,
2013-01-26 03:42:00,25.9,22.8,29.85,ENE,68,1.7,2.3,88,0.00,SCT,,0.00,WeatherDisplay:10.37,2013-01-26 10:42:00,
2013-01-26 03:47:00,26.2,23.1,29.85,ENE,68,2.0,2.3,88,0.00,SCT,,0.00,WeatherDisplay:10.37,2013-01-26 10:47:00,
2013-01-26 03:52:00,26.2,23.4,29.85,East,90,2.3,2.7,89,0.00,SCT,,0.00,WeatherDisplay:10.37,2013-01-26 10:52:00,
2013-01-26 03:57:00,26.4,23.6,29.85,ENE,68,1.9,2.3,89,0.00,SCT,,0.00,WeatherDisplay:10.37,2013-01-26 10:57:00,
2013-01-26 04:03:00,26.8,24.0,29.84,NE,45,2.3,2.3,89,0.00,OVC,,0.00,WeatherDisplay:10.37,2013-01-26 11:03:00,
2013-01-26 04:08:00,27.0,23.9,29.84,ESE,112,2.3,2.3,88,0.00,OVC,,0.00,WeatherDisplay:10.37,2013-01-26 11:08:00,
2013-01-26 04:13:00,27.1,24.3,29.84,NE,45,2.5,2.5,89,0.00,OVC,,0.00,WeatherDisplay:10.37,2013-01-26 11:13:00,
2013-01-26 04:18:00,27.3,24.2,29.84,NE,45,2.7,3.5,88,0.00,OVC,,0.00,WeatherDisplay:10.37,2013-01-26 11:18:00,
2013-01-26 04:23:00,27.7,24.9,29.84,NE,45,3.0,3.5,89,0.00,OVC,,0.00,WeatherDisplay:10.37,2013-01-26 11:23:00,
2013-01-26 04:28:00,27.7,24.3,29.84,ESE,112,2.0,2.3,87,0.00,OVC,,0.00,WeatherDisplay:10.37,2013-01-26 11:28:00,
2013-01-26 04:33:00,27.7,24.3,29.84,East,90,1.6,1.7,87,0.00,OVC,,0.00,WeatherDisplay:10.37,2013-01-26 11:33:00,
2013-01-26 04:38:00,27.7,24.3,29.84,East,90,1.5,1.7,87,0.00,OVC,,0.00,WeatherDisplay:10.37,2013-01-26 11:38:00,
2013-01-26 04:43:00,27.7,24.3,29.84,NE,45,1.3,1.3,87,0.00,OVC,,0.00,WeatherDisplay:10.37,2013-01-26 11:43:00,
2013-01-26 04:48:00,27.5,24.1,29.84,ENE,68,2.3,2.3,87,0.00,OVC,,0.00,WeatherDisplay:10.37,2013-01-26 11:48:00,
2013-01-26 04:53:00,27.5,24.4,29.84,ENE,68,2.3,2.3,88,0.00,OVC,,0.00,WeatherDisplay:10.37,2013-01-26 11:53:00,
2013-01-26 04:58:00,27.7,24.3,29.84,ESE,112,2.2,2.3,87,0.00,OVC,,0.00,WeatherDisplay:10.37,2013-01-26 11:58:00,
2013-01-26 05:03:00,27.7,24.3,29.84,ESE,112,2.6,2.7,87,0.00,OVC,,0.00,WeatherDisplay:10.37,2013-01-26 12:03:00,
2013-01-26 05:08:00,27.7,24.3,29.84,NNE,22,1.7,2.3,87,0.00,OVC,,0.00,WeatherDisplay:10.37,2013-01-26 12:08:00,
2013-01-26 05:13:00,27.7,24.6,29.84,ESE,112,1.9,2.3,88,0.00,OVC,,0.00,WeatherDisplay:10.37,2013-01-26 12:13:00,
2013-01-26 05:18:00,27.9,24.8,29.84,ESE,112,2.7,2.7,88,0.00,OVC,,0.00,WeatherDisplay:10.37,2013-01-26 12:18:00,
2013-01-26 05:23:00,28.8,25.4,29.84,SSE,158,2.6,3.5,87,0.00,OVC,,0.00,WeatherDisplay:10.37,2013-01-26 12:23:00,
2013-01-26 05:28:00,29.1,25.4,29.84,SE,135,2.9,3.5,86,0.00,OVC,,0.00,WeatherDisplay:10.37,2013-01-26 12:28:00,
2013-01-26 05:33:00,29.1,25.4,29.84,ESE,112,2.7,3.5,86,0.00,OVC,,0.00,WeatherDisplay:10.37,2013-01-26 12:33:00,
2013-01-26 05:38:00,29.1,25.4,29.84,SE,135,2.0,2.3,86,0.00,OVC,,0.00,WeatherDisplay:10.37,2013-01-26 12:38:00,
2013-01-26 05:43:00,29.3,25.6,29.84,SSE,158,0.1,1.1,86,0.00,OVC,,0.00,WeatherDisplay:10.37,2013-01-26 12:43:00,
2013-01-26 05:48:00,29.3,25.6,29.84,ENE,68,0.0,0.0,86,0.00,OVC,,0.00,WeatherDisplay:10.37,2013-01-26 12:48:00,
2013-01-26 05:53:00,29.3,25.6,29.84,NNE,22,2.0,2.3,86,0.00,OVC,,0.00,WeatherDisplay:10.37,2013-01-26 12:53:00,
2013-01-26 05:58:00,29.3,25.6,29.84,ESE,112,0.4,1.1,86,0.00,OVC,,0.00,WeatherDisplay:10.37,2013-01-26 12:58:00,
2013-01-26 06:03:00,29.1,25.4,29.83,NE,45,0.0,0.0,86,0.00,OVC,,0.00,WeatherDisplay:10.37,2013-01-26 13:03:00,
2013-01-26 06:08:00,28.9,25.2,29.83,NE,45,2.0,2.3,86,0.00,OVC,,0.00,WeatherDisplay:10.37,2013-01-26 13:08:00,
2013-01-26 06:13:00,28.8,25.1,29.83,ESE,112,1.5,2.3,86,0.00,OVC,,0.00,WeatherDisplay:10.37,2013-01-26 13:13:00,
2013-01-26 06:18:00,28.4,24.7,29.83,NE,45,1.7,1.7,86,0.00,OVC,,0.00,WeatherDisplay:10.37,2013-01-26 13:18:00,
2013-01-26 06:23:00,28.4,24.7,29.83,ENE,68,2.2,2.3,86,0.00,OVC,,0.00,WeatherDisplay:10.37,2013-01-26 13:23:00,
2013-01-26 06:28:00,28.4,25.0,29.83,NE,45,2.0,2.3,87,0.00,OVC,,0.00,WeatherDisplay:10.37,2013-01-26 13:28:00,
2013-01-26 06:33:00,28.4,25.0,29.83,ENE,68,2.4,2.7,87,0.00,OVC,,0.00,WeatherDisplay:10.37,2013-01-26 13:33:00,
2013-01-26 06:38:00,28.4,25.0,29.83,ENE,68,1.5,2.3,87,0.00,OVC,,0.00,WeatherDisplay:10.37,2013-01-26 13:38:00,
2013-01-26 06:43:00,28.4,25.0,29.83,ESE,112,2.7,3.2,87,0.00,OVC,,0.00,WeatherDisplay:10.37,2013-01-26 13:43:00,
2013-01-26 06:48:00,28.2,24.8,29.83,ESE,112,1.9,2.3,87,0.00,OVC,,0.00,WeatherDisplay:10.37,2013-01-26 13:48:00,
2013-01-26 06:53:00,28.2,24.8,29.83,ENE,68,2.1,2.3,87,0.00,OVC,,0.00,WeatherDisplay:10.37,2013-01-26 13:53:00,
2013-01-26 06:58:00,28.4,25.3,29.83,WNW,292,0.0,1.1,88,0.00,OVC,,0.00,WeatherDisplay:10.37,2013-01-26 13:58:00,
2013-01-26 07:03:00,28.4,25.3,29.83,NE,45,0.0,0.0,88,0.00,OVC,,0.00,WeatherDisplay:10.37,2013-01-26 14:03:00,
2013-01-26 07:08:00,28.6,25.5,29.83,ESE,112,2.1,2.3,88,0.00,OVC,,0.00,WeatherDisplay:10.37,2013-01-26 14:08:00,
2013-01-26 07:13:00,28.6,25.5,29.82,ESE,112,0.0,0.0,88,0.00,OVC,,0.00,WeatherDisplay:10.37,2013-01-26 14:13:00,
2013-01-26 07:18:00,28.6,25.2,29.82,NE,45,0.0,0.0,87,0.00,OVC,,0.00,WeatherDisplay:10.37,2013-01-26 14:18:00,
2013-01-26 07:23:00,28.8,25.4,29.82,SW,225,0.0,0.0,87,0.00,OVC,,0.00,WeatherDisplay:10.37,2013-01-26 14:23:00,
2013-01-26 07:28:00,28.8,25.4,29.83,ESE,112,0.0,0.0,87,0.00,OVC,,0.00,WeatherDisplay:10.37,2013-01-26 14:28:00,
2013-01-26 07:33:00,28.9,25.5,29.83,ESE,112,0.9,1.7,87,0.00,OVC,,0.00,WeatherDisplay:10.37,2013-01-26 14:33:00,
2013-01-26 07:38:00,28.9,25.5,29.83,NW,315,1.7,2.3,87,0.00,OVC,,0.00,WeatherDisplay:10.37,2013-01-26 14:38:00,
2013-01-26 07:43:00,28.9,25.5,29.83,NE,45,1.7,2.3,87,0.00,OVC,,0.00,WeatherDisplay:10.37,2013-01-26 14:43:00,
2013-01-26 07:48:00,28.9,25.5,29.83,East,90,0.0,1.1,87,0.00,OVC,,0.00,WeatherDisplay:10.37,2013-01-26 14:48:00,
2013-01-26 07:53:00,29.1,25.7,29.83,ENE,68,1.7,2.3,87,0.00,OVC,,0.00,WeatherDisplay:10.37,2013-01-26 14:53:00,
2013-01-26 07:58:00,29.1,25.7,29.83,ENE,68,2.3,2.3,87,0.00,OVC,,0.00,WeatherDisplay:10.37,2013-01-26 14:58:00,
2013-01-26 08:03:00,29.3,25.6,29.83,ESE,112,1.8,2.3,86,0.00,OVC,,0.00,WeatherDisplay:10.37,2013-01-26 15:03:00,
2013-01-26 08:08:00,29.5,25.8,29.83,ENE,68,1.6,1.7,86,0.00,OVC,,0.00,WeatherDisplay:10.37,2013-01-26 15:08:00,
2013-01-26 08:13:00,29.7,26.0,29.83,ESE,112,1.9,2.3,86,0.00,OVC,,0.00,WeatherDisplay:10.37,2013-01-26 15:13:00,
2013-01-26 08:18:00,29.7,26.0,29.83,NE,45,3.3,3.5,86,0.00,OVC,,0.00,WeatherDisplay:10.37,2013-01-26 15:18:00,
2013-01-26 08:23:00,30.0,26.3,29.83,ENE,68,0.9,1.7,86,0.00,OVC,,0.00,WeatherDisplay:10.37,2013-01-26 15:23:00,
2013-01-26 08:28:00,30.4,26.4,29.83,NE,45,0.0,0.0,85,0.00,OVC,,0.00,WeatherDisplay:10.37,2013-01-26 15:28:00,
2013-01-26 08:33:00,30.2,26.2,29.83,NE,45,2.0,3.5,85,0.00,OVC,,0.00,WeatherDisplay:10.37,2013-01-26 15:33:00,
2013-01-26 08:38:00,30.7,26.4,29.83,NE,45,0.0,1.1,84,0.00,OVC,,0.00,WeatherDisplay:10.37,2013-01-26 15:38:00,
2013-01-26 08:43:00,31.1,26.8,29.83,NE,45,2.1,2.3,84,0.00,OVC,,0.00,WeatherDisplay:10.37,2013-01-26 15:43:00,
2013-01-26 08:48:00,31.5,27.2,29.83,NE,45,2.2,2.3,84,0.00,OVC,,0.00,WeatherDisplay:10.37,2013-01-26 15:48:00,
2013-01-26 08:54:00,31.6,27.0,29.83,ENE,68,2.4,3.5,83,0.00,OVC,,0.00,WeatherDisplay:10.37,2013-01-26 15:54:00,
2013-01-26 08:59:00,32.2,27.6,29.83,ENE,68,2.3,2.7,83,0.00,OVC,,0.00,WeatherDisplay:10.37,2013-01-26 15:59:00,
2013-01-26 09:04:00,32.2,27.6,29.83,ESE,112,2.4,2.7,83,0.00,OVC,,0.00,WeatherDisplay:10.37,2013-01-26 16:04:00,
2013-01-26 09:09:00,32.4,27.8,29.83,South,180,2.5,3.5,83,0.00,OVC,,0.00,WeatherDisplay:10.37,2013-01-26 16:09:00,
2013-01-26 09:14:00,32.2,27.6,29.83,NE,45,2.2,3.5,83,0.00,OVC,,0.00,WeatherDisplay:10.37,2013-01-26 16:14:00,
2013-01-26 09:19:00,32.2,27.9,29.83,NE,45,3.2,4.6,84,0.00,OVC,,0.00,WeatherDisplay:10.37,2013-01-26 16:19:00,
2013-01-26 09:24:00,31.6,27.6,29.83,West,270,4.6,5.8,85,0.00,OVC,,0.00,WeatherDisplay:10.37,2013-01-26 16:24:00,
2013-01-26 09:29:00,31.8,27.8,29.83,East,90,4.0,5.8,85,0.00,OVC,,0.00,WeatherDisplay:10.37,2013-01-26 16:29:00,
2013-01-26 09:34:00,31.8,27.5,29.83,ESE,112,2.6,3.5,84,0.00,OVC,,0.00,WeatherDisplay:10.37,2013-01-26 16:34:00,
2013-01-26 09:39:00,32.2,27.9,29.84,ESE,112,2.2,3.5,84,0.00,OVC,,0.00,WeatherDisplay:10.37,2013-01-26 16:39:00,
2013-01-26 09:44:00,32.5,28.2,29.84,ESE,112,1.6,1.6,84,0.00,OVC,,0.00,WeatherDisplay:10.37,2013-01-26 16:44:00,
2013-01-26 09:49:00,33.3,28.7,29.84,ESE,112,2.2,2.3,83,0.00,OVC,,0.00,WeatherDisplay:10.37,2013-01-26 16:49:00,
2013-01-26 09:54:00,33.8,28.9,29.83,WNW,292,0.8,1.1,82,0.00,OVC,,0.00,WeatherDisplay:10.37,2013-01-26 16:54:00,
2013-01-26 09:59:00,34.5,29.3,29.83,SE,135,1.0,2.3,81,0.00,OVC,,0.00,WeatherDisplay:10.37,2013-01-26 16:59:00,
2013-01-26 10:04:00,34.7,29.2,29.84,ESE,112,4.6,4.6,80,0.00,OVC,,0.00,WeatherDisplay:10.37,2013-01-26 17:04:00,
2013-01-26 10:09:00,35.2,29.3,29.84,SE,135,4.0,4.6,79,0.00,OVC,,0.00,WeatherDisplay:10.37,2013-01-26 17:09:00,
2013-01-26 10:14:00,35.4,29.2,29.84,SSE,158,3.7,4.6,78,0.00,OVC,,0.00,WeatherDisplay:10.37,2013-01-26 17:14:00,
2013-01-26 10:19:00,35.6,29.4,29.84,SE,135,4.7,5.8,78,0.00,OVC,,0.00,WeatherDisplay:10.37,2013-01-26 17:19:00,
2013-01-26 10:24:00,36.1,29.6,29.84,SSE,158,3.4,3.5,77,0.00,OVC,,0.00,WeatherDisplay:10.37,2013-01-26 17:24:00,
2013-01-26 10:29:00,36.0,29.2,29.84,SW,225,4.2,4.7,76,0.00,OVC,,0.00,WeatherDisplay:10.37,2013-01-26 17:29:00,
2013-01-26 10:34:00,36.1,29.6,29.84,SW,225,2.7,3.5,77,0.00,OVC,,0.00,WeatherDisplay:10.37,2013-01-26 17:34:00,
2013-01-26 10:39:00,36.7,29.8,29.85,SW,225,2.2,2.3,76,0.00,OVC,,0.00,WeatherDisplay:10.37,2013-01-26 17:39:00,
2013-01-26 10:44:00,37.4,30.2,29.85,WNW,292,0.5,2.3,75,0.00,OVC,,0.00,WeatherDisplay:10.37,2013-01-26 17:44:00,
2013-01-26 10:49:00,37.8,30.3,29.85,SW,225,2.7,3.5,74,0.00,OVC,,0.00,WeatherDisplay:10.37,2013-01-26 17:49:00,
2013-01-26 10:54:00,37.9,30.4,29.84,SSE,158,3.3,3.7,74,0.00,OVC,,0.00,WeatherDisplay:10.37,2013-01-26 17:54:00,
2013-01-26 10:59:00,38.7,30.8,29.84,South,180,1.2,2.3,73,0.00,OVC,,0.00,WeatherDisplay:10.37,2013-01-26 17:59:00,
2013-01-26 11:04:00,38.8,30.5,29.84,South,180,2.2,2.3,72,0.00,OVC,,0.00,WeatherDisplay:10.37,2013-01-26 18:04:00,
2013-01-26 11:09:00,38.8,30.5,29.84,South,180,2.2,2.3,72,0.00,OVC,,0.00,WeatherDisplay:10.37,2013-01-26 18:09:00,
2013-01-26 11:14:00,38.8,30.5,29.84,South,180,2.2,2.3,72,0.00,OVC,,0.00,WeatherDisplay:10.37,2013-01-26 18:14:00,
2013-01-26 11:19:00,38.8,30.5,29.84,South,180,2.2,2.3,72,0.00,OVC,,0.00,WeatherDisplay:10.37,2013-01-26 18:19:00,
2013-01-26 11:24:00,38.8,30.5,29.84,South,180,2.2,2.3,72,0.00,OVC,,0.00,WeatherDisplay:10.37,2013-01-26 18:24:00,
2013-01-26 11:29:00,38.8,30.5,29.84,North,0,2.2,2.3,72,0.00,OVC,,0.00,WeatherDisplay:10.37,2013-01-26 18:29:00,
2013-01-26 11:34:00,38.8,30.5,29.84,North,0,2.2,2.3,72,0.00,OVC,,0.00,WeatherDisplay:10.37,2013-01-26 18:34:00,